This is the latest recevied weather packets stored in our database for station/object KK7ISX. If no packets are shown the sender has not sent any weather packets the latest 1 day(s).
| Time | Temp. | Humidity | Pressure | Rain* | Wind** | Luminosity | Snow |
|---|---|---|---|---|---|---|---|
| 1778018926 | 24.44° C | 36% | 1008.6 hPa | 0 mm | 2.68 m/s, 15° | 578 W/m² | - |
| 1778018623 | 23.89° C | 35% | 1008.7 hPa | 0 mm | 4.02 m/s, 17° | 589 W/m² | - |
| 1778018321 | 23.89° C | 35% | 1009 hPa | 0 mm | 4.47 m/s, 357° | 603 W/m² | - |
| 1778018019 | 23.89° C | 35% | 1009.1 hPa | 0 mm | 4.02 m/s, 345° | 611 W/m² | - |
| 1778017717 | 23.89° C | 35% | 1009.1 hPa | 0 mm | 3.13 m/s, 349° | 618 W/m² | - |
| 1778017414 | 23.89° C | 35% | 1009 hPa | 0 mm | 4.47 m/s, 297° | 630 W/m² | - |
| 1778017111 | 23.89° C | 34% | 1009 hPa | 0 mm | 3.58 m/s, 334° | 638 W/m² | - |
| 1778016809 | 23.89° C | 35% | 1009.2 hPa | 0 mm | 3.13 m/s, 354° | 644 W/m² | - |
| 1778016504 | 23.33° C | 36% | 1009 hPa | 0 mm | 2.68 m/s, 306° | 646 W/m² | - |
| 1778016202 | 23.89° C | 36% | 1009.3 hPa | 0 mm | 4.92 m/s, 330° | 657 W/m² | - |
| 1778015898 | 23.89° C | 36% | 1009.2 hPa | 0 mm | 4.02 m/s, 320° | 662 W/m² | - |
| 1778015596 | 23.33° C | 37% | 1009.4 hPa | 0 mm | 3.13 m/s, 315° | 675 W/m² | - |
| 1778015292 | 23.89° C | 36% | 1009.4 hPa | 0 mm | 5.81 m/s, 341° | 684 W/m² | - |
| 1778014989 | 23.33° C | 37% | 1009.6 hPa | 0 mm | 1.79 m/s, 302° | 686 W/m² | - |
| 1778014686 | 22.78° C | 35% | 1009.4 hPa | 0 mm | 6.71 m/s, 324° | 693 W/m² | - |
| 1778014384 | 23.33° C | 35% | 1009.6 hPa | 0 mm | 2.68 m/s, 291° | 698 W/m² | - |
| 1778014080 | 23.33° C | 35% | 1009.7 hPa | 0 mm | 4.02 m/s, 323° | 701 W/m² | - |
| 1778013778 | 23.33° C | 35% | 1009.7 hPa | 0 mm | 4.02 m/s, 329° | 703 W/m² | - |
| 1778013475 | 23.33° C | 35% | 1009.7 hPa | 0 mm | 3.58 m/s, 357° | 711 W/m² | - |
| 1778013172 | 22.78° C | 36% | 1009.8 hPa | 0 mm | 2.24 m/s, 346° | 715 W/m² | - |
| 1778012868 | 22.78° C | 36% | 1009.6 hPa | 0 mm | 2.24 m/s, 347° | 723 W/m² | - |
| 1778012564 | 22.78° C | 35% | 1009.9 hPa | 0 mm | 4.02 m/s, 308° | 726 W/m² | - |
| 1778012261 | 22.22° C | 37% | 1010 hPa | 0 mm | 3.58 m/s, 313° | 730 W/m² | - |
| 1778011959 | 22.78° C | 37% | 1009.9 hPa | 0 mm | 3.13 m/s, 278° | 736 W/m² | - |
| 1778011657 | 22.78° C | 37% | 1010 hPa | 0 mm | 3.13 m/s, 302° | 738 W/m² | - |
* Rain latest hour (hover to see other rain measurements)
** Current wind speed in m/s (hover to see current wind gust speed)